[[{"header":{"parameterUnit":"m.s-1","parameterCategory":1,"la1":30.2991,"la2":30.254,"lo1":-89.0895,"lo2":-89.0444,"dy":0.0017,"dx":0.0017,"nx":28,"ny":28,"refTime":"2024-06-20T09:00:00:Z","depth":0,"parameterNumber":2,"parameterNumberName":"U-component_of_WINDS"},"data":[0,0,0,0,0,0,0,0,0,0,0,0,0,0,0,0,0,0,0,0,0,0,0,0,0,0,0,0,0,0,0,0,0,0,0,0,0,0,0,0,0,0,0,0,0,0,0,0,0,0,0,0,0,0,0,0,0,0,-5.1235,-5.1235,0,-5.1156,-5.1155,-5.1154,-5.0967,-5.0963,-5.096,-5.0956,-5.0881,-5.0882,-5.0884,0,0,0,0,0,0,0,0,0,0,0,0,0,-5.1232,-5.1233,-5.1236,-5.1235,-5.1234,-5.1156,-5.1155,-5.1154,-5.0968,-5.0963,-5.0959,-5.0954,-5.088,-5.0882,-5.0884,0,0,0,0,0,0,0,0,0,0,0,0,0,-5.1202,-5.1234,-5.1236,-5.1131,-5.1121,-5.1157,-5.1155,-5.1154,-5.0969,-5.0963,-5.0957,-5.0952,-5.088,-5.0882,-5.0885,-5.1017,0,0,-5.0892,-5.0893,0,0,0,0,0,0,0,0,-5.1204,-5.1202,-5.1148,-5.1138,-5.1127,-5.1065,-5.1126,-5.1108,-5.0971,-5.1027,-5.0956,-5.0949,-5.0948,-5.0944,-5.0942,-5.1014,-5.101,-5.0892,-5.0894,-5.0895,-5.0896,0,0,0,0,0,0,0,-5.1206,-5.1205,-5.1204,-5.1147,-5.1135,-5.1091,-5.108,-5.1122,-5.1021,-5.1022,-5.1008,-5.1001,-5.0941,-5.094,-5.0939,-5.1009,-5.0892,-5.0894,-5.0896,-5.0897,-5.1187,-5.1193,0,0,0,0,0,0,-5.1222,-5.1208,-5.1207,-5.1202,-5.1152,-5.1095,-5.1083,-5.1091,-5.102,-5.1004,-5.1006,-5.0992,-5.0939,-5.0936,-5.0936,-5.1087,-5.0895,-5.0897,-5.0899,-5.1181,-5.1189,-5.1195,0,0,0,0,0,0,-5.1223,-5.1224,-5.121,-5.1201,-5.1196,-5.1102,-5.1112,-5.1093,-5.1092,-5.1008,-5.099,-5.1023,-5.0934,-5.0932,-5.0998,-5.1081,-5.0898,-5.09,-5.1174,-5.1183,-5.1192,-5.139,0,0,0,0,0,0,-5.1224,-5.1225,-5.1273,-5.1203,-5.1197,-5.1272,-5.1117,-5.1096,-5.1096,-5.1078,-5.102,-5.1005,-5.0929,-5.0996,-5.1001,-5.1082,-5.0902,-5.1166,-5.1178,-5.1189,-5.1376,-5.1405,-5.143,0,0,0,0,0,-5.1224,-5.1333,-5.1276,-5.1277,-5.1254,-5.1277,-5.1274,-5.1183,-5.1103,-5.1152,-5.1098,-5.1006,-5.1072,-5.1004,-5.1008,-5.1091,-5.116,-5.1175,-5.1188,-5.1363,-5.1399,-5.143,0,0,0,0,0,0,-5.1417,-5.1322,-5.1258,-5.1347,-5.1322,-5.1246,-5.1303,-5.1224,-5.1222,-5.1205,-5.1095,-5.1084,-5.1165,-5.1134,-5.106,-5.1217,-5.1101,-5.1117,-5.1233,-5.1266,-5.1293,-5.1299,-5.0904,0,0,0,0,0,-5.1469,-5.1494,-5.141,-5.1497,-5.1487,-5.1399,-5.1405,-5.1338,-5.1308,-5.1296,-5.1247,-5.1224,-5.1239,-5.1251,-5.126,-5.1371,-5.1356,-5.143,-5.1458,-5.148,-5.1495,-5.1553,-5.1585,-5.1241,-5.1241,-5.1241,0,0,-5.1578,-5.153,-5.1552,-5.1535,-5.1507,-5.1537,-5.1391,-5.1428,-5.145,-5.1303,-5.1361,-5.1326,-5.1292,-5.1381,-5.1418,-5.1358,-5.1587,-5.1498,-5.1517,-5.1519,-5.1571,-5.1603,-5.1632,-5.1251,-5.1249,-5.1248,0,0,-5.1792,-5.1758,-5.1826,-5.1802,-5.1761,-5.1701,-5.1718,-5.1655,-5.1625,-5.1682,-5.1572,-5.1598,-5.1626,-5.1606,-5.16,-5.181,-5.1726,-5.1817,-5.1959,-5.2017,-5.2044,-5.2067,-5.2143,-5.2171,-5.1832,-5.1832,-5.1833,0,-5.1934,-5.1972,-5.1872,-5.1917,-5.1913,-5.178,-5.185,-5.1832,-5.1798,-5.18,-5.1733,-5.1766,-5.1734,-5.1817,-5.1869,-5.1868,-5.1886,-5.1822,-5.2048,-5.207,-5.2091,-5.2162,-5.219,-5.1843,-5.1842,-5.1841,-5.184,0,-5.2148,-5.2178,-5.2238,-5.2207,-5.221,-5.2268,-5.2179,-5.2195,-5.2129,-5.2077,-5.2138,-5.2095,-5.2094,-5.2109,-5.2045,-5.2185,-5.2149,-5.2067,-5.1949,-5.2136,-5.2201,-5.2228,-5.186,-5.1856,-5.1852,-5.1849,0,0,-5.2479,-5.2393,-5.2417,-5.2402,-5.2348,-5.237,-5.2423,-5.242,-5.2437,-5.2419,-5.2462,-5.2489,-5.2413,-5.2407,-5.234,-5.2391,-5.2561,-5.2302,-5.2299,-5.2352,-5.2714,-5.2776,-5.2809,-5.2505,-5.251,-5.2514,-5.2717,0,-5.2681,-5.2763,-5.2676,-5.2778,-5.2805,-5.268,-5.2726,-5.27,-5.2654,-5.2672,-5.2622,-5.2644,-5.2541,-5.2537,-5.2581,-5.2531,-5.2632,-5.2515,-5.2546,-5.2548,-5.2558,-5.2842,-5.2908,-5.3101,-5.2742,-5.2746,-5.2749,0,-5.2925,-5.2917,-5.3022,-5.2963,-5.2971,-5.3014,-5.3005,-5.3023,-5.2992,-5.2956,-5.295,-5.2868,-5.2919,-5.2805,-5.2874,-5.2796,-5.2804,-5.2782,-5.2787,-5.2786,-5.266,-5.285,-5.3161,-5.319,-5.2788,-5.2785,-5.2782,0,-5.3157,-5.3173,-5.3237,-5.3228,-5.3161,-5.3195,-5.3169,-5.3132,-5.3136,-5.313,-5.3132,-5.3133,-5.3134,-5.3137,-5.3059,-5.2983,-5.3139,-5.3018,-5.3111,-5.3114,-5.3149,-5.3148,-5.3466,-5.3155,-5.3155,-5.3154,-5.3154,0,-5.339,-5.3459,-5.334,-5.338,-5.3455,-5.3355,-5.3433,-5.3394,-5.3363,-5.3395,-5.3288,-5.3321,-5.3216,-5.3239,-5.3178,-5.3246,-5.3247,-5.322,-5.3203,-5.3229,-5.3233,-5.3233,-5.3217,-5.3162,-5.316,-5.3159,-5.3157,0,-5.3661,-5.3584,-5.3646,-5.3578,-5.3563,-5.3621,-5.3563,-5.3599,-5.3547,-5.3589,-5.3593,-5.3512,-5.3533,-5.3456,-5.3465,-5.3424,-5.3524,-5.3485,-5.3534,-5.3522,-5.362,-5.3613,-5.3949,-5.3989,-5.3654,-5.3657,-5.366,0,-5.3815,-5.3864,-5.3802,-5.3815,-5.3794,-5.3817,-5.382,-5.3726,-5.3735,-5.3705,-5.3745,-5.3757,-5.3761,-5.3802,-5.3745,-5.3752,-5.3713,-5.383,-5.3713,-5.3739,-5.3715,-5.3713,-5.3718,-5.3855,-5.3859,-5.3862,-5.3865,0,-5.4096,-5.4056,-5.4064,-5.4061,-5.4068,-5.4061,-5.4047,-5.4065,-5.3963,-5.398,-5.3999,-5.4003,-5.4012,-5.4026,-5.4021,-5.3997,-5.3916,-5.3903,-5.3925,-5.3952,-5.3978,-5.3966,-5.3601,-5.3895,-5.3892,-5.389,-5.3888,-5.3887,-5.4312,-5.4351,-5.4314,-5.4328,-5.4307,-5.4297,-5.4327,-5.4279,-5.4293,-5.4291,-5.4236,-5.4268,-5.4238,-5.4222,-5.4207,-5.4232,-5.4177,-5.4209,-5.4217,-5.4227,-5.4244,-5.3975,-5.4231,-5.423,-5.4229,-5.4228,-5.4227,0,-5.4588,-5.4558,-5.4572,-5.4555,-5.4567,-5.4488,-5.4469,-5.4485,-5.4514,-5.4492,-5.4499,-5.4523,-5.4537,-5.4482,-5.4489,-5.4519,-5.4483,-5.4525,-5.4521,-5.4517,-5.4292,-5.4272,-5.4554,-5.4554,-5.4554,-5.4554,-5.4554,-5.4554,-5.4733,-5.4795,-5.4751,-5.4804,-5.4773,-5.4802,-5.4798,-5.4789,-5.4771,-5.4802,-5.4813,-5.4776,-5.4742,-5.4746,-5.4756,-5.474,-5.4748,-5.4803,-5.4775,-5.4565,-5.4533,-5.4503,-5.4483,-5.4806,-5.4806,-5.4998,-5.5,-5.5001]},{"header":{"parameterUnit":"m.s-1","parameterCategory":1,"la1":30.2991,"la2":30.254,"lo1":-89.0895,"lo2":-89.0444,"dy":0.0017,"dx":0.0017,"nx":28,"ny":28,"refTime":"2024-06-20T09:00:00:Z","depth":0,"parameterNumber":3,"parameterNumberName":"V-component_of_WINDS"},"data":[0,0,0,0,0,0,0,0,0,0,0,0,0,0,0,0,0,0,0,0,0,0,0,0,0,0,0,0,0,0,0,0,0,0,0,0,0,0,0,0,0,0,0,0,0,0,0,0,0,0,0,0,0,0,0,0,0,0,0.6835,0.6835,0,0.6805,0.6804,0.6804,0.6826,0.6827,0.6828,0.6829,0.6792,0.679,0.6788,0,0,0,0,0,0,0,0,0,0,0,0,0,0.691,0.6909,0.6835,0.6835,0.6835,0.6805,0.6804,0.6804,0.6825,0.6827,0.6828,0.6829,0.6792,0.679,0.6788,0,0,0,0,0,0,0,0,0,0,0,0,0,0.6878,0.6908,0.6836,0.6842,0.6842,0.6805,0.6804,0.6804,0.6825,0.6827,0.6828,0.683,0.6793,0.679,0.6788,0.674,0,0,0.6779,0.6778,0,0,0,0,0,0,0,0,0.688,0.6876,0.6841,0.6842,0.6842,0.6821,0.6817,0.6782,0.6825,0.6832,0.6829,0.683,0.68,0.6797,0.6787,0.6739,0.6737,0.6779,0.6777,0.6776,0.6775,0,0,0,0,0,0,0,0.6882,0.6877,0.6823,0.6841,0.6841,0.6846,0.6843,0.6811,0.6808,0.6831,0.6833,0.6829,0.68,0.679,0.6787,0.6736,0.6779,0.6776,0.6774,0.6773,0.6649,0.6647,0,0,0,0,0,0,0.6885,0.6879,0.6824,0.6822,0.6865,0.6843,0.684,0.6826,0.6808,0.6807,0.6828,0.683,0.6794,0.679,0.6785,0.6729,0.6776,0.6773,0.6771,0.665,0.6648,0.6647,0,0,0,0,0,0,0.6886,0.6879,0.6825,0.6851,0.6844,0.684,0.6824,0.6824,0.6814,0.6806,0.6805,0.6818,0.6795,0.6789,0.6752,0.6728,0.6772,0.6769,0.6652,0.665,0.6647,0.6615,0,0,0,0,0,0,0.6888,0.688,0.6862,0.685,0.6843,0.6793,0.6823,0.6823,0.681,0.6813,0.6796,0.6795,0.6796,0.6756,0.6749,0.6725,0.6767,0.6654,0.6651,0.6648,0.6618,0.6612,0.6607,0,0,0,0,0,0.6891,0.6853,0.6861,0.6854,0.6821,0.6792,0.6787,0.6791,0.6808,0.679,0.6785,0.6795,0.6733,0.6752,0.6744,0.6719,0.6656,0.6652,0.6648,0.6621,0.6613,0.6607,0,0,0,0,0,0,0.6859,0.6851,0.686,0.6818,0.6806,0.6795,0.6772,0.6782,0.6763,0.6766,0.677,0.6766,0.6727,0.672,0.6742,0.6673,0.6697,0.6691,0.6679,0.6671,0.6665,0.6667,0.6765,0,0,0,0,0,0.6848,0.6826,0.682,0.6783,0.6777,0.6776,0.6763,0.6767,0.6754,0.6748,0.674,0.6725,0.6703,0.6687,0.6665,0.6619,0.6615,0.6598,0.6592,0.6587,0.6581,0.6557,0.6549,0.6635,0.6635,0.6635,0,0,0.6823,0.6816,0.6802,0.6777,0.6768,0.6744,0.6771,0.6744,0.6726,0.6743,0.6708,0.6702,0.6686,0.6644,0.6625,0.6636,0.6558,0.6583,0.6579,0.6576,0.6552,0.6544,0.6537,0.6632,0.6633,0.6633,0,0,0.6766,0.6759,0.6728,0.6719,0.6706,0.6706,0.6699,0.6688,0.6685,0.665,0.6663,0.6642,0.6602,0.659,0.6579,0.6521,0.653,0.6514,0.6482,0.6458,0.6451,0.6445,0.6423,0.6416,0.6509,0.6509,0.6509,0,0.6735,0.6701,0.671,0.6683,0.6671,0.6689,0.6657,0.6648,0.6628,0.6619,0.6633,0.6585,0.6576,0.6531,0.6518,0.6509,0.6499,0.6514,0.6452,0.6446,0.644,0.642,0.6412,0.6507,0.6507,0.6508,0.6508,0,0.6665,0.6641,0.6618,0.66,0.6587,0.6557,0.6561,0.6546,0.6552,0.6551,0.6516,0.6506,0.6483,0.6473,0.6478,0.643,0.6437,0.6452,0.6475,0.643,0.6411,0.6403,0.6504,0.6505,0.6506,0.6506,0,0,0.6582,0.6573,0.6564,0.6557,0.6546,0.6527,0.6499,0.6479,0.6466,0.6452,0.6428,0.6396,0.641,0.6398,0.6402,0.6381,0.6335,0.6398,0.6398,0.6385,0.6281,0.6268,0.6259,0.6343,0.6341,0.634,0.6282,0,0.6523,0.6476,0.6484,0.6437,0.6415,0.6434,0.641,0.64,0.6399,0.6379,0.6378,0.6355,0.6376,0.6368,0.6349,0.6345,0.6314,0.635,0.6318,0.6317,0.6319,0.6249,0.6235,0.618,0.6274,0.6273,0.6272,0,0.6446,0.6433,0.6384,0.6379,0.637,0.6348,0.6331,0.6313,0.6302,0.6303,0.6291,0.63,0.6272,0.6299,0.6259,0.6283,0.6271,0.6268,0.6266,0.6261,0.629,0.624,0.6163,0.6154,0.626,0.6261,0.6262,0,0.6389,0.6359,0.6327,0.632,0.6313,0.6297,0.6293,0.6284,0.6272,0.6257,0.625,0.6231,0.622,0.6206,0.6209,0.6229,0.6169,0.6196,0.6167,0.6167,0.615,0.6151,0.6068,0.6147,0.6147,0.6147,0.6148,0,0.6321,0.629,0.6301,0.628,0.6247,0.6258,0.6224,0.6222,0.6215,0.6194,0.6209,0.6189,0.6197,0.6177,0.618,0.6146,0.6142,0.614,0.6141,0.6137,0.6137,0.6127,0.613,0.6145,0.6146,0.6146,0.6147,0,0.6249,0.6256,0.6222,0.6219,0.6218,0.6193,0.619,0.6171,0.6173,0.6146,0.614,0.6143,0.612,0.6124,0.6098,0.6101,0.6058,0.6065,0.6062,0.6063,0.6033,0.6035,0.5939,0.5927,0.6016,0.6015,0.6014,0,0.6204,0.6181,0.6177,0.6165,0.6161,0.6141,0.613,0.6141,0.6128,0.6116,0.6098,0.6078,0.6062,0.6026,0.6024,0.6005,0.6009,0.5978,0.6006,0.6004,0.6007,0.6007,0.6005,0.597,0.5969,0.5969,0.5968,0,0.6121,0.6127,0.6111,0.6097,0.6083,0.6072,0.6062,0.6051,0.6061,0.6047,0.6025,0.6013,0.5989,0.5968,0.5952,0.5946,0.5958,0.596,0.5952,0.5946,0.5945,0.5944,0.6044,0.5961,0.5962,0.5962,0.5962,0.5963,0.606,0.6041,0.6036,0.6018,0.6013,0.6004,0.5986,0.5988,0.5971,0.5953,0.5961,0.5936,0.5928,0.5907,0.59,0.588,0.5892,0.5881,0.5877,0.5874,0.587,0.5951,0.5878,0.5878,0.5878,0.5878,0.5878,0,0.5977,0.5976,0.596,0.5947,0.5933,0.595,0.594,0.5927,0.5906,0.5899,0.5884,0.586,0.5841,0.5839,0.5821,0.5806,0.5811,0.58,0.58,0.5799,0.5861,0.5869,0.5797,0.5797,0.5797,0.5797,0.5797,0.5797,0.5932,0.5901,0.5906,0.5873,0.5872,0.5849,0.5843,0.5835,0.5829,0.5802,0.5787,0.5788,0.5783,0.5765,0.5748,0.5748,0.574,0.5727,0.5729,0.5786,0.5794,0.5802,0.5809,0.5726,0.5726,0.5668,0.5667,0.5667]}]]